Lid_Strength_Index
14 14 15 15 15 15 16 16 16 17 17 17 17 18 18 19 19 20 20 20 20 21 20 20 20 20 20 20 20 20 20 21 23 21 19 19 19 19 19 18 18 18 18
14 15 15 15 16 15 16 16 16 17 17 18 18 18 18 19 19 20 20 20 21 21 21 21 21 20 21 21 21 21 21 20 21 22 20 20 20 19 19 19 18 17 17
15 15 15 15 16 16 15 16 17 17 18 18 18 19 19 19 19 19 20 20 21 21 21 21 21 21 22 22 22 22 21 20 20 21 21 19 19 19 18 18 17 17 16
15 15 15 16 16 15 15 16 17 16 17 18 18 18 19 19 19 20 20 21 21 21 21 21 21 21 21 21 21 21 20 20 20 20 20 19 19 17 17 18 18 17 17
14 15 15 15 16 16 16 16 16 16 17 17 18 19 19 19 20 20 20 20 21 21 21 21 21 21 19 19 20 20 20 20 20 20 20 19 18 18 18 17 18 17 17
15 15 14 15 16 16 16 16 17 17 17 18 19 19 20 19 17 16 19 20 21 21 21 21 20 20 19 16 16 15 16 20 21 20 19 19 19 18 17 18 19 19 20
15 15 16 16 16 16 16 17 17 18 18 19 19 19 20 19 15 15 17 20 20 21 20 20 19 19 18 18 16 15 15 15 14 16 18 17 17 17 17 18 18 18 18
16 15 18 17 16 17 18 18 18 18 19 19 19 19 19 19 15 15 16 20 20 20 19 18 18 18 18 17 18 18 18 17 17 17 17 16 16 15 15 15 16 18 18
16 16 17 18 17 19 18 19 18 18 18 18 18 18 19 19 14 15 16 20 20 19 18 18 18 18 17 15 17 19 18 17 15 14 13 13 13 13 13 17 20 21 22
14 15 17 18 19 18 17 18 18 18 18 17 18 18 19 19 15 14 16 19 20 20 19 18 17 17 16 15 17 20 20 18 18 19 17 16 15 17 15 17 19 22 22
16 18 18 18 17 18 19 19 18 18 18 19 19 19 19 19 16 14 14 18 19 19 19 19 18 15 15 15 15 17 18 17 18 18 20 20 19 19 18 18 18 19 21
17 18 17 17 20 19 19 19 19 19 20 20 21 21 20 20 17 14 14 17 17 19 19 19 18 16 16 16 15 16 16 16 23 24 23 22 21 20 18 18 17 17 17
14 17 17 17 17 18 18 18 19 19 20 20 21 21 22 21 19 15 14 15 16 19 19 18 17 16 16 17 17 17 18 21 23 25 24 22 20 19 18 18 17 17 17
14 15 16 17 17 18 17 18 19 19 19 20 20 21 21 21 20 17 16 16 16 18 17 18 18 19 19 19 20 21 21 21 22 22 22 20 19 19 20 18 19 19 19
18 15 15 18 18 18 18 19 18 18 18 19 19 20 21 22 20 17 17 17 17 18 23 23 23 23 23 23 22 22 22 22 22 22 21 21 21 20 20 19 19 19 20
21 19 16 16 17 18 19 19 16 16 16 15 15 17 19 18 17 15 15 15 16 17 24 25 24 23 24 24 24 24 23 23 22 21 21 22 21 21 20 20 19 20 21
22 20 18 17 17 18 20 20 21 17 15 14 15 15 16 16 15 15 15 15 15 18 25 24 24 24 24 24 24 24 24 23 22 22 22 21 21 21 21 21 20 21 20
22 21 19 18 17 18 19 19 19 20 19 19 15 15 14 14 13 13 14 15 18 23 26 26 26 26 26 25 25 25 24 24 24 23 22 23 23 23 22 22 21 21 21
22 21 19 17 16 18 18 19 20 20 20 19 18 15 15 14 13 12 13 17 24 27 27 27 26 27 27 27 27 27 28 27 26 26 25 24 23 23 22 21 21 20 20
20 19 19 18 17 18 18 19 20 20 19 18 18 17 17 15 15 15 21 22 24 25 27 27 28 28 29 29 30 31 31 28 28 27 26 24 23 22 21 21 20 21 21
19 18 17 15 17 16 17 18 18 18 17 17 16 15 13 14 18 22 24 23 25 26 27 27 28 30 31 31 33 34 31 28 28 28 26 24 23 23 21 19 20 20 20
17 16 16 15 17 17 17 16 16 16 16 17 17 14 12 20 22 23 24 25 27 27 27 28 29 30 30 31 32 33 32 30 30 29 25 24 23 22 21 19 20 20 20
16 16 17 18 18 17 17 17 17 16 18 18 16 20 21 22 24 25 26 27 29 29 31 32 30 31 34 33 33 32 32 30 30 29 26 25 24 22 20 20 21 21 21
19 19 19 19 19 19 19 19 20 20 19 18 21 22 23 24 25 26 27 28 29 30 31 31 32 33 32 32 33 33 32 30 30 28 26 24 22 20 20 21 21 21 21
21 21 21 21 21 22 21 21 21 21 22 24 24 25 26 26 27 27 28 28 29 30 30 30 30 32 32 32 31 32 31 27 28 26 23 20 19 20 21 21 21 21 21
23 23 23 23 23 23 23 23 23 23 24 25 26 26 26 26 27 28 28 27 27 27 28 29 31 31 30 30 31 29 26 22 21 18 16 17 21 20 21 22 21 21 21